AQUA

Last updated on Wed Jul 02 2025 00:02:14 GMT+0000 (Coordinated Universal Time)

1 27424U 02022A 25182.59130161 .00000633 00000+0 13793-3 0 9996 2 27424 98.3783 141.1238 0001586 56.5065 31.0124 14.61326546232057
UTC large
Height (km)
Speed (km/s)
/
Latitude / Longitude
Inclination (degrees)
Orbital Period (minutes)
Azimuth
Elevation
Range (km)
Doppler Factor

Next 0 passes for location: London (51.5072 / 0.1276)

Sorry there are no passes over London.